sat.trackr.live / text

‹ back to catalog

STARLINK-1633

NORAD 46171 · 2020-057BG

PAYLOAD ACTIVE UNKNOWN

§ Identity

Operator
Country
US
Launch date
2020-08-18
Launch site
AFETR
Launch vehicle
Mass (kg)
RCS (m²)

Purposes: comms

External: N2YO · Heavens-Above · Gunter

§ Orbital elements

Epoch: 2026-07-27T14:18:26.993664Z

Period
87.55 min
Inclination
53.0101°
Eccentricity
0.0006424
Mean motion
16.44797188 rev/d
Perigee alt
148.9 km
Apogee alt
157.3 km
Semi-major
6,531.2 km
B*
3.1971e-4
RAAN
277.1963°
Arg perigee
304.3072°
Mean anomaly
55.7367°
Rev number
33,024

§ Raw data

STARLINK-16331 46171U 20057BG  26208.59614576  .10730462  12557-4  31971-3 0  99952 46171  53.0101 277.1963 0006424 304.3072  55.7367 16.44797188330241

JSON: /api/v1/satellites/46171 · /tle

For live sub-satellite position, see the globe view (requires WebGL).

§ Visibility from observer

Set your observer location to see the next 7 days of passes ≥ 10°. The values pass through the URL so the page stays shareable.

No JS? Fill the form by hand. The geolocation button needs JavaScript.